This demonstration page uses our WeatherBlox Daily Observations layout. Learn more.

Left ArrowRight Arrow

31.84235, -102.49876

Hourly Observations for June 18, 2022

Temp ( °F °C ) Dew Point ( °F °C ) Humidity (%) Winds ( mph kmh ) Pressure ( in mb ) Visibility ( mi km ) Precip ( " mm )
12:53 am 00:53 Clear 82 27.8 46 7.8 28 28 SSE 6 9 29.88 1012 10 16 0.00 0.00
1:53 am 01:53 Clear 80 26.7 49 9.4 34 34 SSE 8 13 29.87 1012 10 16 0.00 0.00
2:53 am 02:53 Clear 79 26.1 50 10 36 36 SSE 8 13 29.87 1012 10 16 0.00 0.00
3:53 am 03:53 Clear 77 25 51 10.6 40 40 SSE 8 13 29.88 1012 10 16 0.00 0.00
4:53 am 04:53 Clear 76 24.4 52 11.1 43 43 SSE 8 13 29.88 1012 10 16 0.00 0.00
5:53 am 05:53 Clear 74 23.3 53 11.7 48 48 SE 7 11 29.89 1012 10 16 0.00 0.00
6:53 am 06:53 Sunny 74 23.3 55 12.8 52 52 SE 7 11 29.90 1013 10 16 0.00 0.00
7:53 am 07:53 Sunny 76 24.4 57 13.9 52 52 SSE 8 13 29.91 1013 10 16 0.00 0.00
8:53 am 08:53 Sunny 79 26.1 60 15.6 52 52 S 12 19 29.93 1014 10 16 0.00 0.00
9:53 am 09:53 Sunny 83 28.3 59 15 44 44 S 16 26 29.94 1014 10 16 0.00 0.00
10:53 am 10:53 Sunny 86 30 59 15 40 40 S 16 26 29.94 1014 10 16 0.00 0.00
11:53 am 11:53 Sunny 88 31.1 59 15 38 38 SE 15 24 29.93 1014 10 16 0.00 0.00
12:53 pm 12:53 Sunny 91 32.8 56 13.3 31 31 SSE 20 31 29.91 1013 10 16 0.00 0.00
1:53 pm 13:53 Partly Cloudy 91 32.8 56 13.3 31 31 SSE 21 33 29.91 1013 10 16 0.00 0.00
2:53 pm 14:53 Sunny 94 34.4 55 12.8 27 27 SE 20 31 29.88 1012 10 16 0.00 0.00
3:53 pm 15:53 Mostly Sunny 95 35 52 11.1 23 23 SE 14 22 29.86 1011 10 16 0.00 0.00
4:53 pm 16:53 Mostly Sunny 97 36.1 49 9.4 20 20 SE 18 30 29.84 1011 10 16 0.00 0.00
5:53 pm 17:53 Sunny 95 35 48 8.9 20 20 SE 18 30 29.83 1010 10 16 0.00 0.00
6:53 pm 18:53 Sunny 94 34.4 48 8.9 21 21 SE 17 28 29.82 1010 10 16 0.00 0.00
7:53 pm 19:53 Sunny 93 33.9 48 8.9 21 21 SSE 15 24 29.82 1010 10 16 0.00 0.00
8:53 pm 20:53 Sunny 91 32.8 48 8.9 23 23 SSE 14 22 29.83 1010 10 16 0.00 0.00
9:53 pm 21:53 Clear 89 31.7 49 9.4 25 25 SSE 15 24 29.84 1011 10 16 0.00 0.00
10:53 pm 22:53 Clear 87 30.6 47 8.3 25 25 S 15 24 29.86 1011 10 16 0.00 0.00
11:53 pm 23:53 Clear 85 29.4 48 8.9 28 28 S 15 24 29.88 1012 10 16 0.00 0.00

Powered by AerisWeather